Regional Weather Roundup
Issued by NWS

Home | Current Version | Previous Version | Text Only | Print | Product List | Glossary On
Versions: 1 2 3 4 5 6 7 8 9 10 11 12 13 14 15 16 17 18 19 20 21 22 23 24 25 26 27 28 29 30 31 32 33 34 35 36 37 38 39 40 41 42 43 44 45 46 47 48 49 50
000
ASUS43 KDTX 260110
RWRMI
MICHIGAN HOURLY REGIONAL WEATHER ROUNDUP
NATIONAL WEATHER SERVICE DETROIT/PONTIAC MI
900 PM EDT SAT MAR 25 2017

NOTE: "FAIR" INDICATES FEW OR NO CLOUDS BELOW 12,000 FEET WITH NO
SIGNIFICANT WEATHER AND/OR OBSTRUCTION TO VISIBILITY.

MIZ047>049-052>055-059>063-066>070-074>076-081>083-260200-
SOUTHEAST LOWER MICHIGAN

CITY           SKY/WX    TMP DP  RH WIND       PRES   REMARKS
ADRIAN         CLOUDY    41  37  86 E17       30.14F
ALMA           CLOUDY    39  38  98 E13       30.18R WCI  31
ANN ARBOR      CLOUDY    43  39  86 NE14      30.16S
BAD AXE        CLOUDY    37  35  93 E10G16    30.25F WCI  29
CARO           LGT RAIN  38  36  95 E7        30.20S WCI  32
DETROIT CITY   CLOUDY    41  38  89 E15G22    30.20F
DETROIT        CLOUDY    43  38  82 E8        30.19F
FLINT          CLOUDY    40  39  97 E14       30.18S WCI  32
GROSSE ILE     CLOUDY    40  36  84 E18G26    30.18S WCI  31
HILLSDALE      CLOUDY    41  37  87 E17G23    30.09S
HOWELL         CLOUDY    42  40  92 E12G17    30.16R

CITY           SKY/WX    TMP DP  RH WIND       PRES   REMARKS
JACKSON        CLOUDY    43  39  86 E13       30.11S
LAMBERTVILLE   CLOUDY    39  35  85 E14G28    30.15F WCI  31
LANSING        CLOUDY    42  40  92 E12       30.15S FOG
LAPEER         CLOUDY    39  38  97 E7        30.20S WCI  34
MASON          CLOUDY    43  41  92 E8        30.14R
MONROE         CLOUDY    40  37  89 E10G21    30.16F WCI  34
MT. CLEMENS    CLOUDY    39  39  99 E9        30.19S WCI  33
PONTIAC        CLOUDY    40  37  89 E14G23    30.17F WCI  32
PORT HOPE        N/A     35  33  92 E10       30.26F WCI  27
PORT HURON     CLOUDY    39  34  81 E12       30.23S WCI  32
TRI CITIES     CLOUDY    38  38 100 NE12      30.21S WCI  30
MIDLAND        CLOUDY    36  34  94 NE9G17    30.20F WCI  29
TROY           CLOUDY    41  37  85 E10G17    30.21F
SAGINAW HB     DRIZZLE   37  36  93 NE10      30.21S WCI  30
$$
MIZ043>046-050>051-056>058-064>065-071>073-077>080-260200-
SOUTHWEST LOWER MICHIGAN

CITY           SKY/WX    TMP DP  RH WIND       PRES   REMARKS
BATTLE CREEK   LGT RAIN  46  43  89 E8        30.10R
BENTON HARBOR  LGT RAIN  49  46  90 E12G22    30.01S FOG
BIG RAPIDS     CLOUDY    36  33  92 E15G22    30.15S WCI  26
COLDWATER      CLOUDY    46  43  88 E9G16     30.07S
FREMONT        LGT RAIN  38  37  95 E9G21     30.11R WCI  31
HOLLAND        CLOUDY    43  41  93 E14       30.07F
GRAND RAPIDS   HVY RAIN  41  38  89 E18       30.11R FOG
IONIA          CLOUDY    39  38  97 E15       30.12F FOG     WCI  31
KALAMAZOO      RAIN      46  43  89 E7        30.10R FOG
LUDINGTON      CLOUDY    39  37  92 E16G22    30.10S WCI  30
MARSHALL       CLOUDY    45  44  97 E9        30.09F
MOUNT PLEASANT CLOUDY    36  35  95 NE10      30.19S WCI  28
MUSKEGON       LGT RAIN  41  39  93 E17G25    30.08S
SOUTH HAVEN    CLOUDY    46  45  96 E14G21    30.05R FOG
$$
MIZ016>042-260200-
NORTHERN LOWER MICHIGAN

CITY           SKY/WX    TMP DP  RH WIND       PRES   REMARKS
ALPENA         LGT RAIN  33  28  81 E12       30.33S WCI  24
BEAVER ISLAND  CLOUDY    33  29  86 E16       30.26F WCI  22
BELLAIRE       MIX PCPN  36  29  78 NE10      30.23F WCI  28
CADILLAC       CLOUDY    33  33  96 E15G25    30.15S WCI  23
CHARLEVOIX     CLOUDY    36  29  76 E12       30.27S WCI  28
FRANKFORT      CLOUDY    38  32  81 E8G17     30.15S WCI  32
GAYLORD        CLOUDY    32  27  81 E8        30.23S WCI  25
GRAYLING       CLOUDY    32  30  93 E12G23    30.23S WCI  23
HARBOR SPRINGS CLOUDY    34  28  79 E15G25    30.26F WCI  24
HOUGHTON LAKE  CLOUDY    33  31  92 E15       30.21F WCI  23
MANISTEE       LGT RAIN  39  35  86 E15       30.12S WCI  31
OSCODA         MIX PCPN  34  33  94 NE14      30.29S WCI  25
PELLSTON       CLOUDY    33  24  69 E14       30.30S WCI  23
ROGERS CITY    CLOUDY    33  26  75 E13G20      N/A  WCI  24
TRAVERSE CITY  CLOUDY    38  30  73 E10       30.19F WCI  31
$$
MIZ007>008-015-260200-
EASTERN UPPER MICHIGAN

CITY           SKY/WX    TMP DP  RH WIND       PRES   REMARKS
KINROSS        CLOUDY    32  11  41 SE12      30.33R WCI  23
MACKINAC ISLAN CLOUDY    32  24  72 E14G23    30.31S WCI  22
NEWBERRY       CLOUDY    33  21  61 E6        30.29S WCI  27
S. S. MARIE    CLOUDY    32  12  43 SE9       30.34R WCI  24
MUNISING         N/A     38  28  67 SE8       30.25F WCI  32
$$
MIZ004>006-011>014-085-260200-
CENTRAL UPPER MICHIGAN

CITY           SKY/WX    TMP DP  RH WIND       PRES   REMARKS
MANISTIQUE     CLOUDY    34  28  80 E10G21    30.27S WCI  26
ESCANABA       CLOUDY    35  28  75 E10       30.23F WCI  27
MENOMINEE        N/A    N/A N/A N/A MISG        N/A
SAWYER-GWINN   CLOUDY    32  28  86 NE8       30.23S WCI  25
$$
MIZ001>003-009>011-084-260200-
WESTERN UPPER MICHIGAN

CITY           SKY/WX    TMP DP  RH WIND       PRES   REMARKS
IRON MOUNTAIN  CLOUDY    35  27  72 E8        30.19S WCI  29
HOUGHTON       CLOUDY    31  26  82 E12       30.22F WCI  22
COPPER HARBOR    N/A     32  27  81 CALM      30.27S
IRONWOOD       CLOUDY    35  29  78 E7        30.15F WCI  29
$$

ABBREVIATIONS USED IN REMARKS
   TC - TEMPERATURE IN CELSIUS
  WCI - WIND CHILL INDEX
   HX - HEAT INDEX
  VSB - VISIBILITY




USA.gov is the U.S. government's official web portal to all federal, state and local government web resources and services.